User: anonymous   Login
Location: Mentone
(34.5413°N, 85.5351°W)
Time: 13:59:42
(UTC-06:00)
Language:

Tiros 1 despin weight - Orbit

View from above orbital plane
View from above orbital plane
View from above satellite
View from above satellite

Ground track
Ground track

The orbit data is extracted from the following two-line orbital elements,

1 00115U 60002D   17327.79086794  .00000116  00000-0  41223-4 0  9999
2 00115  48.1663  96.9915 0034277  81.9402 278.5397 14.83200213 73918
Epoch (UTC): 23 November 2017 18:58:50
Eccentricity: 0.0034277
inclination: 48.1663°
perigee height: 595 km
apogee height: 643 km
right ascension of ascending node: 96.9915°
argument of perigee: 81.9402°
revolutions per day: 14.83200213
mean anomaly at epoch: 278.5397°
orbit number at epoch: 7391

The dashed part of the orbit path shows where the satellite is in the earth's shadow,  

DLR